Bartlesville, OK

10:37 PM CDT on August 24, 2016 (GMT -0500)
Bartlesville Municipal

Weather History for KBVO - January, 2012

Change the Weather History Date:

Tuesday, January 17, 2012

  Actual Average Record
Temperature  
Mean Temperature 36 °F -  
Max Temperature 50 °F 46 °F 64 °F (2015)
Min Temperature 16 °F 24 °F 17 °F (2016)
Degree Days  
Heating Degree Days 30    
Moisture  
Dew Point 16 °F    
Average Humidity 57    
Maximum Humidity 77    
Minimum Humidity 36    
Precipitation  
Precipitation 0.00 in - - ()
Sea Level Pressure  
Sea Level Pressure 30.26 in    
Wind  
Wind Speed 7 mph (NNW)    
Max Wind Speed 9 mph    
Max Gust Speed 26 mph    
Visibility 10 miles    
Events      
Averages and records for this station are not official NWS values.
T = Trace of Precipitation, MM = Missing Value Source: NWS Daily Summary

Daily Weather History Graph

Daily Weather History Graph

Search for Another Location

Airport or City:

Trip Planner

Search our weather history database for the weather conditions in past years. The results will help you decide how hot, cold, wet, or windy it might be!

Date:

Astronomy

Jan. 17, 2012 Rise Set
Actual Time 7:35 AM CST 5:33 PM CST
Civil Twilight 7:07 AM CST 6:01 PM CST
Nautical Twilight 6:35 AM CST 6:33 PM CST
Astronomical Twilight 6:04 AM CST 7:04 PM CST
Moon 1:57 AM CST (1/17) 12:26 PM CST (1/17)
Length of Visible Light 10h 54m
Length of Day
9h 57m
Waning Crescent, 35% of the Moon is Illuminated
Jan 17
Waning Crescent
Jan 23
New
Jan 30
First Quarter
Feb 7
Full
Feb 14
Last Quarter

Hourly Weather History & Observations

Time (CST) Temp. Windchill Dew Point Humidity Pressure Visibility Wind Dir Wind Speed Gust Speed Precip Events Conditions
12:53 AM 50.0 °F - 41.0 °F 71% 29.74 in 10.0 mi NW 9.2 mph 26.5 mph N/A   Partly Cloudy
1:53 AM 42.1 °F 37.1 °F 34.0 °F 73% 29.82 in 10.0 mi NNW 8.1 mph - N/A   Partly Cloudy
2:53 AM 34.0 °F 28.0 °F 23.0 °F 64% 29.94 in 10.0 mi Variable 6.9 mph 19.6 mph N/A   Clear
3:53 AM 30.9 °F 23.5 °F 19.9 °F 64% 30.00 in 10.0 mi NNW 8.1 mph - N/A   Clear
4:53 AM 28.0 °F 21.7 °F 17.1 °F 63% 30.08 in 10.0 mi Variable 5.8 mph - N/A   Clear
5:53 AM 25.0 °F 18.1 °F 16.0 °F 69% 30.17 in 10.0 mi Variable 5.8 mph 19.6 mph N/A   Clear
6:53 AM 23.0 °F 14.7 °F 14.0 °F 68% 30.22 in 10.0 mi NNW 6.9 mph - N/A   Clear
7:53 AM 21.9 °F 12.5 °F 12.9 °F 68% 30.27 in 10.0 mi NNW 8.1 mph - N/A   Clear
8:53 AM 25.0 °F 16.3 °F 14.0 °F 63% 30.32 in 10.0 mi NNW 8.1 mph - N/A   Clear
9:53 AM 28.0 °F 20.8 °F 14.0 °F 56% 30.35 in 10.0 mi Variable 6.9 mph - N/A   Clear
10:53 AM 30.9 °F 25.2 °F 15.1 °F 52% 30.38 in 10.0 mi Variable 5.8 mph - N/A   Clear
11:53 AM 34.0 °F 28.0 °F 15.1 °F 46% 30.36 in 10.0 mi Variable 6.9 mph - N/A   Clear
12:53 PM 36.0 °F 29.6 °F 15.1 °F 43% 30.33 in 10.0 mi NNW 8.1 mph - N/A   Clear
1:53 PM 39.0 °F 34.0 °F 16.0 °F 39% 30.32 in 10.0 mi Variable 6.9 mph 17.3 mph N/A   Clear
2:53 PM 39.0 °F 34.8 °F 15.1 °F 38% 30.32 in 10.0 mi Variable 5.8 mph - N/A   Clear
3:53 PM 39.0 °F 34.8 °F 14.0 °F 36% 30.35 in 10.0 mi Variable 5.8 mph 18.4 mph N/A   Clear
4:53 PM 35.1 °F 30.1 °F 12.9 °F 40% 30.37 in 10.0 mi North 5.8 mph 16.1 mph N/A   Clear
5:53 PM 30.9 °F 25.2 °F 12.9 °F 47% 30.37 in 10.0 mi North 5.8 mph - N/A   Clear
6:53 PM 30.9 °F 22.8 °F 12.9 °F 47% 30.39 in 10.0 mi North 9.2 mph - N/A   Partly Cloudy
7:53 PM 30.0 °F - 12.9 °F 49% 30.43 in 10.0 mi Calm Calm - N/A   Mostly Cloudy
8:53 PM 27.0 °F - 12.0 °F 53% 30.44 in 10.0 mi Calm Calm - N/A   Clear
9:53 PM 23.0 °F - 12.0 °F 63% 30.45 in 10.0 mi Calm Calm - N/A   Clear
10:53 PM 21.0 °F - 12.0 °F 68% 30.44 in 10.0 mi Calm Calm - N/A   Clear
11:53 PM 16.0 °F - 10.0 °F 77% 30.44 in 10.0 mi Calm Calm - N/A   Clear